Cienfuegos, Cuba

6:16 AM CST on December 12, 2019 (GMT -0500)
Jaime Gonzalez

Weather History for MUCF - October, 2019

Change the Weather History Date:

Friday, October 11, 2019

  Actual Average Record
Temperature  
Mean Temperature 82 °F -  
Max Temperature 91 °F - - ()
Min Temperature 73 °F - - ()
Cooling Degree Days 17    
Growing Degree Days 32 (Base 50)    
Moisture  
Dew Point 75 °F    
Average Humidity 89    
Maximum Humidity 100    
Minimum Humidity 59    
Precipitation  
Precipitation 0.00 in - - ()
Sea Level Pressure  
Sea Level Pressure 29.91 in    
Wind  
Wind Speed 1 mph ()    
Max Wind Speed 1 mph    
Max Gust Speed -    
Visibility 5.8 miles    
Events      
T = Trace of Precipitation, MM = Missing Value Source: Averaged Metar Reports

Daily Weather History Graph

Daily Weather History Graph

Search for Another Location

Airport or City:

Astronomy

Oct. 11, 2019 Rise Set
Actual Time 7:16 AM CDT 7:00 PM CDT
Civil Twilight 6:53 AM CDT 7:22 PM CDT
Nautical Twilight 6:27 AM CDT 7:48 PM CDT
Astronomical Twilight 6:01 AM CDT 8:14 PM CDT
Moon 6:06 PM CDT (10/11) 5:21 AM CDT (10/11)
Length of Visible Light 12h 28m
Length of Day
11h 43m
Waxing Gibbous, 96% of the Moon is Illuminated
Oct 11
Waxing Gibbous
Oct 13
Full
Oct 21
Last Quarter
Oct 27
New
Nov 4
First Quarter

Hourly Weather History & Observations

Time (CDT) Temp. Heat Index Dew Point Humidity Pressure Visibility Wind Dir Wind Speed Gust Speed Precip Events Conditions
12:59 AM 75.2 °F - 75.2 °F 100% 29.92 in - Variable 1.2 mph - N/A   Unknown
1:59 AM 75.2 °F - 75.2 °F 100% 29.89 in - Variable 1.2 mph - N/A   Unknown
2:59 AM 75.2 °F - 75.2 °F 100% 29.89 in - Variable 1.2 mph - N/A   Unknown
3:59 AM 75.2 °F - 75.2 °F 100% 29.89 in - Variable 1.2 mph - N/A   Unknown
4:59 AM 75.2 °F - 75.2 °F 100% 29.89 in - Variable 1.2 mph - N/A   Unknown
5:58 AM 75.2 °F - 75.2 °F 100% 29.89 in - Variable 1.2 mph - N/A   Unknown
6:59 AM 75.2 °F - 73.4 °F 94% 29.89 in - Variable 1.2 mph - N/A   Unknown
7:59 AM 75.2 °F - 75.2 °F 100% 29.92 in - Variable 1.2 mph - N/A   Unknown
8:55 AM 78.8 °F - 77.0 °F 94% 29.92 in 5.6 mi Variable 1.2 mph - N/A   Scattered Clouds
9:50 AM 82.4 °F 90.9 °F 77.0 °F 84% 29.92 in 5.6 mi Variable 1.2 mph - N/A   Scattered Clouds
10:50 AM 86.0 °F 96.9 °F 77.0 °F 74% 29.92 in 5.6 mi Variable 1.2 mph - N/A   Scattered Clouds
11:50 AM 87.8 °F 99.7 °F 77.0 °F 70% 29.92 in 5.6 mi Variable 1.2 mph - N/A   Scattered Clouds
12:50 PM 89.6 °F 102.2 °F 77.0 °F 66% 29.92 in 6.2 mi Variable 1.2 mph - N/A   Scattered Clouds
1:50 PM 91.4 °F 102.5 °F 75.2 °F 59% 29.89 in 6.2 mi Variable 1.2 mph - N/A   Mostly Cloudy
2:51 PM 91.4 °F 102.5 °F 75.2 °F 59% 29.86 in 5.6 mi Variable 1.2 mph - N/A   Mostly Cloudy
3:51 PM 87.8 °F 99.7 °F 77.0 °F 70% 29.86 in 6.2 mi Variable 1.2 mph - N/A   Scattered Clouds
4:59 PM 77.0 °F - 75.2 °F 94% 29.86 in - Variable 1.2 mph - N/A   Unknown
5:59 PM 77.0 °F - 75.2 °F 94% 29.89 in - Variable 1.2 mph - N/A   Unknown
6:58 PM 75.2 °F - 73.4 °F 94% 29.92 in - Variable 1.2 mph - N/A   Unknown
7:58 PM 73.4 °F - 73.4 °F 100% 29.95 in - Variable 1.2 mph - N/A   Unknown
8:58 PM 73.4 °F - 71.6 °F 94% 29.95 in - Variable 1.2 mph - N/A   Unknown
9:58 PM 73.4 °F - 71.6 °F 94% 29.95 in - Variable 1.2 mph - N/A   Unknown
10:58 PM 73.4 °F - 73.4 °F 100% 29.95 in - Variable 1.2 mph - N/A   Unknown
11:59 PM 73.4 °F - 71.6 °F 94% 29.95 in - Variable 1.2 mph - N/A   Unknown